Project,Study,Ord_Occ,Event_Num,Date_Time_UTC,Date_Time_PST,Lat_Dec,Lon_Dec,Sta_ID,Line,Sta,Depth,Pressure,Temp0,Temp1,Salt0,CorrSalt0,Salt1,CorrSalt1,O2ml/L,AveCorrO2ml/L,StaCorrO2ml/L,FluorV,AveEstChl,StaEstChl,ISUSV,AveEstNO3,StaEstNO3,SigThetaTS0,SigThetaTS1,BAT,XMiss,SPAR,PAR,BTL_Depth,BTL_Temp,BTL_Salt,BTL_O2ml/L,BTL_Chl,BTL_Pha,BTL_NO3
CalCOFI,0701JD,015,137,15-Jan-2007 6:41:06 PM,15-Jan-2007 10:41:06 AM,30.51400,-122.25418,093.3 100.0,093.3,100.0,513.000,517.182,5.8311,5.8316,34.2265,34.2252,34.2230,34.2231,0.45573,0.52,0.54,0.0248,,,1.6534,38.04,40.022,26.9681,26.9653,0.3820,90.8918,4.7836e+00,9.9990e+03,513,5.83 ,34.231,  .47,,,40.3
CalCOFI,0701JD,015,137,15-Jan-2007 6:41:12 PM,15-Jan-2007 10:41:12 AM,30.51400,-122.25418,093.3 100.0,093.3,100.0,512.000,516.173,5.8315,5.8324,34.2268,34.2255,34.2232,34.2233,0.45462,0.52,0.54,0.0250,,,1.6365,37.55,39.517,26.9683,26.9653,0.3823,90.8857,5.1337e+00,9.9990e+03,,,,,,,
CalCOFI,0701JD,015,137,15-Jan-2007 6:41:31 PM,15-Jan-2007 10:41:31 AM,30.51382,-122.25400,093.3 100.0,093.3,100.0,511.000,515.163,5.8330,5.8329,34.2260,34.2247,34.2226,34.2227,0.45459,0.52,0.54,0.0248,,,1.6245,37.19,39.158,26.9674,26.9647,0.3823,90.8864,5.0973e+00,9.9990e+03,,,,,,,
CalCOFI,0701JD,015,137,15-Jan-2007 6:41:33 PM,15-Jan-2007 10:41:33 AM,30.51382,-122.25400,093.3 100.0,093.3,100.0,510.000,514.154,5.8256,5.8240,34.2232,34.2219,34.2195,34.2196,0.45817,0.52,0.55,0.0248,,,1.6272,37.27,39.239,26.9661,26.9634,0.3821,90.8902,4.6194e+00,9.9990e+03,,,,,,,
CalCOFI,0701JD,015,137,15-Jan-2007 6:41:34 PM,15-Jan-2007 10:41:34 AM,30.51382,-122.25400,093.3 100.0,093.3,100.0,509.000,513.145,5.8203,5.8194,34.2208,34.2195,34.2176,34.2177,0.46086,0.53,0.55,0.0244,,,1.6476,37.87,39.848,26.9649,26.9625,0.3822,90.8874,4.9031e+00,9.9990e+03,,,,,,,
CalCOFI,0701JD,015,137,15-Jan-2007 6:41:35 PM,15-Jan-2007 10:41:35 AM,30.51382,-122.25400,093.3 100.0,093.3,100.0,508.000,512.135,5.8303,5.8315,34.2214,34.2201,34.2173,34.2174,0.46300,0.53,0.55,0.0245,,,1.6333,37.45,39.421,26.9642,26.9607,0.3820,90.8915,4.5571e+00,9.9990e+03,,,,,,,
CalCOFI,0701JD,015,137,15-Jan-2007 6:41:36 PM,15-Jan-2007 10:41:36 AM,30.51382,-122.25400,093.3 100.0,093.3,100.0,507.000,511.126,5.8435,5.8439,34.2212,34.2199,34.2175,34.2176,0.46551,0.53,0.56,0.0248,,,1.6312,37.39,39.358,26.9623,26.9593,0.3820,90.8914,4.8818e+00,9.9990e+03,,,,,,,
CalCOFI,0701JD,015,137,15-Jan-2007 6:41:37 PM,15-Jan-2007 10:41:37 AM,30.51382,-122.25400,093.3 100.0,093.3,100.0,506.000,510.116,5.8510,5.8518,34.2204,34.2191,34.2172,34.2173,0.47020,0.54,0.56,0.0246,,,1.6295,37.34,39.307,26.9607,26.9581,0.3822,90.8873,4.7990e+00,9.9990e+03,,,,,,,
CalCOFI,0701JD,015,137,15-Jan-2007 6:41:38 PM,15-Jan-2007 10:41:38 AM,30.51382,-122.25400,093.3 100.0,093.3,100.0,505.000,509.107,5.8513,5.8512,34.2168,34.2155,34.2138,34.2139,0.47507,0.55,0.57,0.0246,,,1.6221,37.12,39.086,26.9578,26.9555,0.3824,90.8835,4.9394e+00,9.9990e+03,,,,,,,
CalCOFI,0701JD,015,137,15-Jan-2007 6:41:39 PM,15-Jan-2007 10:41:39 AM,30.51382,-122.25400,093.3 100.0,093.3,100.0,504.000,508.098,5.8496,5.8505,34.2134,34.2121,34.2101,34.2102,0.47853,0.55,0.57,0.0244,,,1.6147,36.91,38.865,26.9554,26.9526,0.3830,90.8686,5.0853e+00,9.9990e+03,,,,,,,
CalCOFI,0701JD,015,137,15-Jan-2007 6:41:39 PM,15-Jan-2007 10:41:39 AM,30.51382,-122.25400,093.3 100.0,093.3,100.0,503.000,507.088,5.8525,5.8534,34.2118,34.2105,34.2087,34.2088,0.48238,0.55,0.58,0.0246,,,1.6201,37.07,39.026,26.9537,26.9511,0.3822,90.8872,4.7261e+00,9.9990e+03,,,,,,,
CalCOFI,0701JD,015,137,15-Jan-2007 6:41:40 PM,15-Jan-2007 10:41:40 AM,30.51382,-122.25400,093.3 100.0,093.3,100.0,502.000,506.079,5.8566,5.8574,34.2106,34.2093,34.2075,34.2076,0.48514,0.56,0.58,0.0245,,,1.6215,37.11,39.068,26.9522,26.9497,0.3819,90.8934,4.6049e+00,9.9990e+03,,,,,,,
CalCOFI,0701JD,015,137,15-Jan-2007 6:41:41 PM,15-Jan-2007 10:41:41 AM,30.51382,-122.25400,093.3 100.0,093.3,100.0,501.000,505.070,5.8584,5.8592,34.2101,34.2088,34.2070,34.2071,0.48742,0.56,0.58,0.0249,,,1.6285,37.31,39.277,26.9516,26.9491,0.3821,90.8904,5.0378e+00,9.9990e+03,,,,,,,
CalCOFI,0701JD,015,137,15-Jan-2007 6:41:41 PM,15-Jan-2007 10:41:41 AM,30.51382,-122.25400,093.3 100.0,093.3,100.0,500.000,504.060,5.8595,5.8603,34.2099,34.2086,34.2069,34.2070,0.49058,0.56,0.59,0.0249,,,1.6201,37.07,39.026,26.9513,26.9489,0.3825,90.8798,4.5701e+00,9.9990e+03,,,,,,,
CalCOFI,0701JD,015,137,15-Jan-2007 6:41:42 PM,15-Jan-2007 10:41:42 AM,30.51382,-122.25400,093.3 100.0,093.3,100.0,499.000,503.051,5.8624,5.8632,34.2095,34.2082,34.2064,34.2065,0.49119,0.56,0.59,0.0252,,,1.6125,36.84,38.799,26.9507,26.9481,0.3821,90.8899,5.6384e+00,9.9990e+03,,,,,,,
CalCOFI,0701JD,015,137,15-Jan-2007 6:41:44 PM,15-Jan-2007 10:41:44 AM,30.51382,-122.25400,093.3 100.0,093.3,100.0,498.000,502.042,5.8635,5.8647,34.2096,34.2083,34.2064,34.2065,0.49220,0.57,0.59,0.0248,,,1.6244,37.19,39.155,26.9505,26.9479,0.3820,90.8928,4.9519e+00,9.9990e+03,,,,,,,
CalCOFI,0701JD,015,137,15-Jan-2007 6:41:47 PM,15-Jan-2007 10:41:47 AM,30.51382,-122.25400,093.3 100.0,093.3,100.0,497.000,501.032,5.8533,5.8543,34.2123,34.2110,34.2089,34.2090,0.49583,0.57,0.59,0.0247,,,1.6169,36.97,38.931,26.9540,26.9511,0.3824,90.8838,4.9307e+00,9.9990e+03,,,,,,,
CalCOFI,0701JD,015,137,15-Jan-2007 6:41:48 PM,15-Jan-2007 10:41:48 AM,30.51382,-122.25400,093.3 100.0,093.3,100.0,496.000,500.023,5.8623,5.8581,34.2116,34.2103,34.2079,34.2080,0.50151,0.58,0.60,0.0245,,,1.6026,36.55,38.503,26.9522,26.9499,0.3820,90.8932,4.8441e+00,9.9990e+03,,,,,,,
CalCOFI,0701JD,015,137,15-Jan-2007 6:41:49 PM,15-Jan-2007 10:41:49 AM,30.51382,-122.25400,093.3 100.0,093.3,100.0,495.000,499.014,5.9307,5.9284,34.2083,34.2070,34.2034,34.2035,0.50359,0.58,0.60,0.0248,,,1.6030,36.56,38.515,26.9411,26.9375,0.3821,90.8892,5.3186e+00,9.9990e+03,,,,,,,
CalCOFI,0701JD,015,137,15-Jan-2007 6:41:50 PM,15-Jan-2007 10:41:50 AM,30.51382,-122.25400,093.3 100.0,093.3,100.0,494.000,498.004,5.9475,5.9487,34.2062,34.2049,34.2026,34.2027,0.50513,0.58,0.60,0.0244,,,1.6138,36.88,38.838,26.9374,26.9344,0.3822,90.8883,5.2475e+00,9.9990e+03,,,,,,,
CalCOFI,0701JD,015,137,15-Jan-2007 6:41:50 PM,15-Jan-2007 10:41:50 AM,30.51382,-122.25400,093.3 100.0,093.3,100.0,493.000,496.995,5.9531,5.9538,34.2060,34.2047,34.2032,34.2033,0.50815,0.59,0.61,0.0245,,,1.6157,36.94,38.895,26.9366,26.9342,0.3824,90.8821,4.6333e+00,9.9990e+03,,,,,,,
CalCOFI,0701JD,015,137,15-Jan-2007 6:41:51 PM,15-Jan-2007 10:41:51 AM,30.51382,-122.25400,093.3 100.0,093.3,100.0,492.000,495.986,5.9551,5.9560,34.2060,34.2047,34.2033,34.2034,0.50945,0.59,0.61,0.0250,,,1.6579,38.18,40.156,26.9362,26.9340,0.3820,90.8930,5.3323e+00,9.9990e+03,,,,,,,
CalCOFI,0701JD,015,137,15-Jan-2007 6:41:51 PM,15-Jan-2007 10:41:51 AM,30.51382,-122.25400,093.3 100.0,093.3,100.0,491.000,494.976,5.9574,5.9582,34.2060,34.2047,34.2033,34.2034,0.51121,0.59,0.61,0.0248,,,1.6568,38.14,40.124,26.9359,26.9337,0.3823,90.8843,4.8039e+00,9.9990e+03,,,,,,,
CalCOFI,0701JD,015,137,15-Jan-2007 6:41:52 PM,15-Jan-2007 10:41:52 AM,30.51382,-122.25400,093.3 100.0,093.3,100.0,490.000,493.967,5.9603,5.9611,34.2061,34.2048,34.2034,34.2035,0.51323,0.59,0.61,0.0244,,,1.6295,37.34,39.307,26.9357,26.9334,0.3824,90.8842,4.4554e+00,9.9990e+03,,,,,,,
CalCOFI,0701JD,015,137,15-Jan-2007 6:41:53 PM,15-Jan-2007 10:41:53 AM,30.51382,-122.25400,093.3 100.0,093.3,100.0,489.000,492.958,5.9640,5.9648,34.2062,34.2049,34.2033,34.2034,0.51578,0.59,0.62,0.0249,,,1.6322,37.42,39.388,26.9353,26.9329,0.3823,90.8853,4.8631e+00,9.9990e+03,,,,,,,
CalCOFI,0701JD,015,137,15-Jan-2007 6:41:54 PM,15-Jan-2007 10:41:54 AM,30.51382,-122.25400,093.3 100.0,093.3,100.0,488.000,491.948,5.9678,5.9675,34.2059,34.2046,34.2031,34.2032,0.51754,0.60,0.62,0.0245,,,1.6291,37.33,39.295,26.9346,26.9324,0.3824,90.8827,4.8376e+00,9.9990e+03,,,,,,,
CalCOFI,0701JD,015,137,15-Jan-2007 6:41:55 PM,15-Jan-2007 10:41:55 AM,30.51382,-122.25400,093.3 100.0,093.3,100.0,487.000,490.939,5.9720,5.9751,34.2057,34.2044,34.2027,34.2028,0.51957,0.60,0.62,0.0246,,,1.6051,36.63,38.578,26.9339,26.9311,0.3823,90.8850,4.8008e+00,9.9990e+03,,,,,,,
CalCOFI,0701JD,015,137,15-Jan-2007 6:41:56 PM,15-Jan-2007 10:41:56 AM,30.51382,-122.25400,093.3 100.0,093.3,100.0,486.000,489.930,5.9776,5.9786,34.2057,34.2044,34.2029,34.2030,0.52116,0.60,0.62,0.0251,,,1.5930,36.27,38.216,26.9331,26.9308,0.3823,90.8863,5.1246e+00,9.9990e+03,,,,,,,
CalCOFI,0701JD,015,137,15-Jan-2007 6:41:57 PM,15-Jan-2007 10:41:57 AM,30.51382,-122.25400,093.3 100.0,093.3,100.0,485.000,488.921,5.9788,5.9795,34.2059,34.2046,34.2030,34.2031,0.52189,0.60,0.62,0.0247,,,1.5886,36.14,38.084,26.9332,26.9308,0.3824,90.8832,4.8668e+00,9.9990e+03,,,,,,,
CalCOFI,0701JD,015,137,15-Jan-2007 6:41:58 PM,15-Jan-2007 10:41:58 AM,30.51382,-122.25400,093.3 100.0,093.3,100.0,484.000,487.911,5.9853,5.9860,34.2057,34.2044,34.2029,34.2030,0.52382,0.60,0.63,0.0247,,,1.5952,36.33,38.282,26.9322,26.9299,0.3823,90.8859,5.1816e+00,9.9990e+03,,,,,,,
CalCOFI,0701JD,015,137,15-Jan-2007 6:41:59 PM,15-Jan-2007 10:41:59 AM,30.51382,-122.25400,093.3 100.0,093.3,100.0,483.000,486.902,5.9888,5.9897,34.2044,34.2031,34.2015,34.2016,0.52705,0.61,0.63,0.0247,,,1.6032,36.57,38.521,26.9307,26.9283,0.3823,90.8858,5.0107e+00,9.9990e+03,,,,,,,
CalCOFI,0701JD,015,137,15-Jan-2007 6:42:00 PM,15-Jan-2007 10:42:00 AM,30.51382,-122.25400,093.3 100.0,093.3,100.0,482.000,485.893,5.9940,5.9951,34.2031,34.2018,34.2002,34.2003,0.52897,0.61,0.63,0.0247,,,1.6069,36.68,38.632,26.9290,26.9266,0.3825,90.8816,4.6594e+00,9.9990e+03,,,,,,,
CalCOFI,0701JD,015,137,15-Jan-2007 6:42:02 PM,15-Jan-2007 10:42:02 AM,30.51382,-122.25400,093.3 100.0,093.3,100.0,481.000,484.884,5.9974,5.9990,34.2025,34.2012,34.1996,34.1997,0.53278,0.62,0.64,0.0247,,,1.6199,37.06,39.020,26.9281,26.9256,0.3824,90.8834,5.1421e+00,9.9990e+03,,,,,,,
CalCOFI,0701JD,015,137,15-Jan-2007 6:42:03 PM,15-Jan-2007 10:42:03 AM,30.51382,-122.25400,093.3 100.0,093.3,100.0,480.000,483.874,6.0012,6.0018,34.2022,34.2009,34.1994,34.1995,0.53640,0.62,0.64,0.0246,,,1.5876,36.11,38.055,26.9274,26.9251,0.3824,90.8829,4.5946e+00,9.9990e+03,,,,,,,
CalCOFI,0701JD,015,137,15-Jan-2007 6:42:04 PM,15-Jan-2007 10:42:04 AM,30.51382,-122.25400,093.3 100.0,093.3,100.0,479.000,482.865,6.0108,6.0117,34.2011,34.1998,34.1982,34.1983,0.54052,0.62,0.65,0.0245,,,1.5797,35.88,37.818,26.9253,26.9229,0.3823,90.8850,5.3235e+00,9.9990e+03,,,,,,,
CalCOFI,0701JD,015,137,15-Jan-2007 6:42:05 PM,15-Jan-2007 10:42:05 AM,30.51382,-122.25400,093.3 100.0,093.3,100.0,478.000,481.856,6.0247,6.0259,34.1998,34.1985,34.1964,34.1965,0.54369,0.63,0.65,0.0246,,,1.5854,36.05,37.989,26.9225,26.9197,0.3825,90.8800,4.8598e+00,9.9990e+03,,,,,,,
CalCOFI,0701JD,015,137,15-Jan-2007 6:42:05 PM,15-Jan-2007 10:42:05 AM,-9.990e-29,-122.25400,093.3 100.0,093.3,100.0,477.000,480.847,6.0407,6.0414,34.1971,34.1958,34.1945,34.1946,0.54718,0.63,0.65,0.0247,,,1.6025,36.55,38.500,26.9184,26.9162,0.3821,90.8896,4.3838e+00,9.9990e+03,,,,,,,
CalCOFI,0701JD,015,137,15-Jan-2007 6:42:06 PM,15-Jan-2007 10:42:06 AM,-9.990e-29,-122.25400,093.3 100.0,093.3,100.0,476.000,479.837,6.0453,6.0461,34.1965,34.1952,34.1937,34.1938,0.54988,0.64,0.66,0.0247,,,1.5953,36.34,38.285,26.9173,26.9150,0.3839,90.8493,5.0081e+00,9.9990e+03,,,,,,,
CalCOFI,0701JD,015,137,15-Jan-2007 6:42:07 PM,15-Jan-2007 10:42:07 AM,-9.990e-29,-122.25400,093.3 100.0,093.3,100.0,475.000,478.828,6.0539,6.0546,34.1962,34.1949,34.1933,34.1934,0.55246,0.64,0.66,0.0244,,,1.5832,35.98,37.923,26.9160,26.9136,0.3824,90.8829,5.0130e+00,9.9990e+03,,,,,,,
CalCOFI,0701JD,015,137,15-Jan-2007 6:42:08 PM,15-Jan-2007 10:42:08 AM,-9.990e-29,-122.25400,093.3 100.0,093.3,100.0,474.000,477.819,6.0679,6.0692,34.1961,34.1948,34.1931,34.1932,0.55622,0.64,0.67,0.0248,,,1.5911,36.21,38.159,26.9141,26.9115,0.3825,90.8813,5.0306e+00,9.9990e+03,,,,,,,
CalCOFI,0701JD,015,137,15-Jan-2007 6:42:09 PM,15-Jan-2007 10:42:09 AM,30.51366,-122.25400,093.3 100.0,093.3,100.0,473.000,476.810,6.0733,6.0742,34.1955,34.1942,34.1932,34.1933,0.56185,0.65,0.67,0.0247,,,1.6275,37.28,39.248,26.9129,26.9110,0.3826,90.8790,4.8193e+00,9.9990e+03,,,,,,,
CalCOFI,0701JD,015,137,15-Jan-2007 6:42:10 PM,15-Jan-2007 10:42:10 AM,30.51366,-122.25400,093.3 100.0,093.3,100.0,472.000,475.800,6.0803,6.0836,34.1960,34.1947,34.1925,34.1926,0.56540,0.66,0.68,0.0249,,,1.5927,36.26,38.207,26.9124,26.9092,0.3824,90.8830,4.8964e+00,9.9990e+03,,,,,,,
CalCOFI,0701JD,015,137,15-Jan-2007 6:42:11 PM,15-Jan-2007 10:42:11 AM,30.51366,-122.25400,093.3 100.0,093.3,100.0,471.000,474.791,6.0995,6.1004,34.1934,34.1921,34.1908,34.1909,0.56856,0.66,0.68,0.0245,,,1.5962,36.36,38.312,26.9079,26.9058,0.3828,90.8746,4.7526e+00,9.9990e+03,,,,,,,
CalCOFI,0701JD,015,137,15-Jan-2007 6:42:11 PM,15-Jan-2007 10:42:11 AM,30.51366,-122.25400,093.3 100.0,093.3,100.0,470.000,473.782,6.1035,6.1041,34.1928,34.1915,34.1903,34.1904,0.57110,0.66,0.68,0.0248,,,1.6017,36.53,38.476,26.9070,26.9049,0.3826,90.8785,4.7607e+00,9.9990e+03,,,,,,,
CalCOFI,0701JD,015,137,15-Jan-2007 6:42:13 PM,15-Jan-2007 10:42:13 AM,30.51366,-122.25400,093.3 100.0,093.3,100.0,469.000,472.773,6.1006,6.1035,34.1929,34.1916,34.1903,34.1904,0.57504,0.67,0.69,0.0246,,,1.6080,36.71,38.664,26.9074,26.9049,0.3827,90.8766,4.8856e+00,9.9990e+03,,,,,,,
CalCOFI,0701JD,015,137,15-Jan-2007 6:42:14 PM,15-Jan-2007 10:42:14 AM,30.51366,-122.25400,093.3 100.0,093.3,100.0,468.000,471.764,6.1021,6.1030,34.1925,34.1912,34.1900,34.1901,0.57801,0.67,0.69,0.0247,,,1.6109,36.80,38.751,26.9069,26.9048,0.3827,90.8768,5.1522e+00,9.9990e+03,,,,,,,
CalCOFI,0701JD,015,137,15-Jan-2007 6:42:15 PM,15-Jan-2007 10:42:15 AM,30.51366,-122.25400,093.3 100.0,093.3,100.0,467.000,470.755,6.1056,6.1065,34.1920,34.1907,34.1893,34.1894,0.57942,0.67,0.69,0.0250,,,1.6083,36.72,38.673,26.9060,26.9038,0.3823,90.8849,5.3555e+00,9.9990e+03,,,,,,,
CalCOFI,0701JD,015,137,15-Jan-2007 6:42:16 PM,15-Jan-2007 10:42:16 AM,30.51366,-122.25400,093.3 100.0,093.3,100.0,466.000,469.746,6.1077,6.1085,34.1915,34.1902,34.1891,34.1892,0.58139,0.67,0.70,0.0244,,,1.5918,36.23,38.180,26.9054,26.9033,0.3827,90.8760,4.6948e+00,9.9990e+03,,,,,,,
CalCOFI,0701JD,015,137,15-Jan-2007 6:42:17 PM,15-Jan-2007 10:42:17 AM,30.51366,-122.25400,093.3 100.0,093.3,100.0,465.000,468.736,6.1092,6.1098,34.1914,34.1901,34.1889,34.1890,0.58262,0.68,0.70,0.0248,,,1.5852,36.04,37.983,26.9050,26.9030,0.3825,90.8805,4.5102e+00,9.9990e+03,,,,,,,
CalCOFI,0701JD,015,137,15-Jan-2007 6:42:18 PM,15-Jan-2007 10:42:18 AM,30.51366,-122.25400,093.3 100.0,093.3,100.0,464.000,467.727,6.1109,6.1115,34.1912,34.1899,34.1888,34.1889,0.58578,0.68,0.70,0.0246,,,1.6166,36.96,38.922,26.9046,26.9027,0.3828,90.8729,5.0609e+00,9.9990e+03,,,,,,,
CalCOFI,0701JD,015,137,15-Jan-2007 6:42:19 PM,15-Jan-2007 10:42:19 AM,30.51366,-122.25400,093.3 100.0,093.3,100.0,463.000,466.718,6.1149,6.1156,34.1909,34.1896,34.1882,34.1883,0.58918,0.68,0.71,0.0245,,,1.6226,37.14,39.101,26.9039,26.9017,0.3826,90.8784,5.3178e+00,9.9990e+03,,,,,,,
CalCOFI,0701JD,015,137,15-Jan-2007 6:42:20 PM,15-Jan-2007 10:42:20 AM,30.51366,-122.25400,093.3 100.0,093.3,100.0,462.000,465.709,6.1260,6.1268,34.1898,34.1885,34.1870,34.1871,0.59244,0.69,0.71,0.0243,,,1.6059,36.65,38.602,26.9016,26.8993,0.3827,90.8764,4.6370e+00,9.9990e+03,,,,,,,
CalCOFI,0701JD,015,137,15-Jan-2007 6:42:21 PM,15-Jan-2007 10:42:21 AM,30.51366,-122.25400,093.3 100.0,093.3,100.0,461.000,464.700,6.1409,6.1422,34.1879,34.1866,34.1851,34.1852,0.59757,0.69,0.72,0.0245,,,1.5845,36.02,37.962,26.8982,26.8958,0.3827,90.8759,5.1930e+00,9.9990e+03,,,,,,,
CalCOFI,0701JD,015,137,15-Jan-2007 6:42:22 PM,15-Jan-2007 10:42:22 AM,30.51366,-122.25400,093.3 100.0,093.3,100.0,460.000,463.690,6.1488,6.1498,34.1867,34.1854,34.1842,34.1843,0.60199,0.70,0.72,0.0248,,,1.5817,35.94,37.878,26.8962,26.8942,0.3826,90.8786,4.9738e+00,9.9990e+03,,,,,,,
CalCOFI,0701JD,015,137,15-Jan-2007 6:42:22 PM,15-Jan-2007 10:42:22 AM,30.51366,-122.25400,093.3 100.0,093.3,100.0,459.000,462.681,6.1539,6.1549,34.1861,34.1848,34.1836,34.1837,0.60543,0.70,0.73,0.0243,,,1.6015,36.52,38.470,26.8951,26.8930,0.3828,90.8743,4.9917e+00,9.9990e+03,,,,,,,
CalCOFI,0701JD,015,137,15-Jan-2007 6:42:23 PM,15-Jan-2007 10:42:23 AM,30.51366,-122.25400,093.3 100.0,093.3,100.0,458.000,461.672,6.1584,6.1592,34.1847,34.1834,34.1823,34.1824,0.60910,0.71,0.73,0.0245,,,1.6069,36.68,38.632,26.8934,26.8915,0.3825,90.8805,5.3068e+00,9.9990e+03,,,,,,,
CalCOFI,0701JD,015,137,15-Jan-2007 6:42:24 PM,15-Jan-2007 10:42:24 AM,30.51366,-122.25400,093.3 100.0,093.3,100.0,457.000,460.663,6.1636,6.1643,34.1839,34.1826,34.1816,34.1817,0.61162,0.71,0.73,0.0245,,,1.5980,36.42,38.366,26.8921,26.8902,0.3831,90.8676,4.9723e+00,9.9990e+03,,,,,,,
CalCOFI,0701JD,015,137,15-Jan-2007 6:42:25 PM,15-Jan-2007 10:42:25 AM,30.51366,-122.25400,093.3 100.0,093.3,100.0,456.000,459.654,6.1690,6.1694,34.1837,34.1824,34.1814,34.1815,0.61334,0.71,0.74,0.0246,,,1.5894,36.16,38.108,26.8912,26.8894,0.3827,90.8755,4.7549e+00,9.9990e+03,,,,,,,
CalCOFI,0701JD,015,137,15-Jan-2007 6:42:26 PM,15-Jan-2007 10:42:26 AM,30.51366,-122.25400,093.3 100.0,093.3,100.0,455.000,458.645,6.1704,6.1711,34.1836,34.1823,34.1813,34.1814,0.61503,0.72,0.74,0.0245,,,1.5893,36.16,38.105,26.8910,26.8891,0.3829,90.8710,5.4991e+00,9.9990e+03,,,,,,,
CalCOFI,0701JD,015,137,15-Jan-2007 6:42:27 PM,15-Jan-2007 10:42:27 AM,30.51366,-122.25400,093.3 100.0,093.3,100.0,454.000,457.636,6.1706,6.1711,34.1837,34.1824,34.1814,34.1815,0.61891,0.72,0.74,0.0245,,,1.5840,36.01,37.947,26.8910,26.8891,0.3829,90.8726,5.2793e+00,9.9990e+03,,,,,,,
CalCOFI,0701JD,015,137,15-Jan-2007 6:42:28 PM,15-Jan-2007 10:42:28 AM,30.51366,-122.25400,093.3 100.0,093.3,100.0,453.000,456.627,6.1729,6.1751,34.1834,34.1821,34.1809,34.1810,0.62368,0.73,0.75,0.0248,,,1.5869,36.09,38.034,26.8905,26.8882,0.3827,90.8755,4.7615e+00,9.9990e+03,,,,,,,
CalCOFI,0701JD,015,137,15-Jan-2007 6:42:29 PM,15-Jan-2007 10:42:29 AM,30.51366,-122.25400,093.3 100.0,093.3,100.0,452.000,455.617,6.1878,6.1886,34.1818,34.1805,34.1790,34.1791,0.62769,0.73,0.75,0.0252,,,1.6047,36.61,38.566,26.8873,26.8850,0.3828,90.8738,5.2332e+00,9.9990e+03,,,,,,,
CalCOFI,0701JD,015,137,15-Jan-2007 6:42:30 PM,15-Jan-2007 10:42:30 AM,30.51366,-122.25400,093.3 100.0,093.3,100.0,451.000,454.608,6.1984,6.1996,34.1813,34.1800,34.1788,34.1789,0.63159,0.74,0.76,0.0247,,,1.5912,36.22,38.162,26.8856,26.8834,0.3828,90.8747,5.0839e+00,9.9990e+03,,,,,,,
CalCOFI,0701JD,015,137,15-Jan-2007 6:42:32 PM,15-Jan-2007 10:42:32 AM,30.51366,-122.25383,093.3 100.0,093.3,100.0,450.000,453.599,6.2047,6.2089,34.1805,34.1792,34.1777,34.1778,0.63659,0.74,0.76,0.0247,,,1.5794,35.87,37.809,26.8841,26.8814,0.3829,90.8728,4.7886e+00,9.9990e+03,,,,,,,
CalCOFI,0701JD,015,137,15-Jan-2007 6:42:32 PM,15-Jan-2007 10:42:32 AM,30.51366,-122.25384,093.3 100.0,093.3,100.0,449.000,452.590,6.2158,6.2168,34.1790,34.1777,34.1767,34.1768,0.64242,0.75,0.77,0.0242,,,1.5659,35.47,37.406,26.8815,26.8795,0.3830,90.8685,4.6045e+00,9.9990e+03,,,,,,,
CalCOFI,0701JD,015,137,15-Jan-2007 6:42:33 PM,15-Jan-2007 10:42:33 AM,30.51366,-122.25384,093.3 100.0,093.3,100.0,448.000,451.581,6.2246,6.2256,34.1777,34.1764,34.1754,34.1755,0.64664,0.75,0.78,0.0248,,,1.5867,36.09,38.028,26.8793,26.8774,0.3829,90.8719,5.0808e+00,9.9990e+03,,,,,,,
CalCOFI,0701JD,015,137,15-Jan-2007 6:42:33 PM,15-Jan-2007 10:42:33 AM,30.51366,-122.25384,093.3 100.0,093.3,100.0,447.000,450.572,6.2392,6.2404,34.1758,34.1745,34.1736,34.1737,0.65051,0.76,0.78,0.0239,,,1.5980,36.42,38.366,26.8760,26.8740,0.3825,90.8800,4.4848e+00,9.9990e+03,,,,,,,
CalCOFI,0701JD,015,137,15-Jan-2007 6:42:34 PM,15-Jan-2007 10:42:34 AM,30.51366,-122.25384,093.3 100.0,093.3,100.0,446.000,449.563,6.2457,6.2465,34.1749,34.1736,34.1729,34.1730,0.65449,0.76,0.79,0.0241,,,1.5850,36.04,37.977,26.8744,26.8727,0.3835,90.8583,4.8880e+00,9.9990e+03,,,,,,,
CalCOFI,0701JD,015,137,15-Jan-2007 6:42:35 PM,15-Jan-2007 10:42:35 AM,30.51366,-122.25384,093.3 100.0,093.3,100.0,445.000,448.554,6.2495,6.2506,34.1748,34.1735,34.1728,34.1729,0.65819,0.77,0.79,0.0248,,,1.5721,35.66,37.591,26.8739,26.8721,0.3831,90.8683,4.4180e+00,9.9990e+03,,,,,,,
CalCOFI,0701JD,015,137,15-Jan-2007 6:42:35 PM,15-Jan-2007 10:42:35 AM,30.51366,-122.25384,093.3 100.0,093.3,100.0,444.000,447.545,6.2592,6.2601,34.1738,34.1725,34.1716,34.1717,0.66123,0.77,0.79,0.0245,,,1.5684,35.55,37.481,26.8718,26.8699,0.3828,90.8733,5.2174e+00,9.9990e+03,,,,,,,
CalCOFI,0701JD,015,137,15-Jan-2007 6:42:36 PM,15-Jan-2007 10:42:36 AM,30.51366,-122.25384,093.3 100.0,093.3,100.0,443.000,446.536,6.2714,6.2726,34.1727,34.1714,34.1700,34.1701,0.66347,0.77,0.80,0.0247,,,1.5662,35.48,37.415,26.8693,26.8671,0.3832,90.8658,5.0222e+00,9.9990e+03,,,,,,,
CalCOFI,0701JD,015,137,15-Jan-2007 6:42:37 PM,15-Jan-2007 10:42:37 AM,30.51366,-122.25384,093.3 100.0,093.3,100.0,442.000,445.526,6.2598,6.2572,34.1736,34.1723,34.1722,34.1723,0.66644,0.78,0.80,0.0246,,,1.5765,35.79,37.723,26.8716,26.8708,0.3832,90.8660,4.8652e+00,9.9990e+03,,,,,,,
CalCOFI,0701JD,015,137,15-Jan-2007 6:42:39 PM,15-Jan-2007 10:42:39 AM,30.51366,-122.25384,093.3 100.0,093.3,100.0,441.000,444.517,6.2568,6.2498,34.1748,34.1735,34.1736,34.1737,0.67872,0.79,0.81,0.0246,,,1.5893,36.16,38.105,26.8729,26.8728,0.3835,90.8575,5.2772e+00,9.9990e+03,,,,,,,
CalCOFI,0701JD,015,137,15-Jan-2007 6:42:40 PM,15-Jan-2007 10:42:40 AM,30.51366,-122.25384,093.3 100.0,093.3,100.0,440.000,443.508,6.2917,6.2888,34.1715,34.1702,34.1682,34.1683,0.68828,0.80,0.83,0.0248,,,1.6034,36.58,38.527,26.8657,26.8635,0.3831,90.8669,4.5402e+00,9.9990e+03,,,,,,,
CalCOFI,0701JD,015,137,15-Jan-2007 6:42:41 PM,15-Jan-2007 10:42:41 AM,30.51366,-122.25384,093.3 100.0,093.3,100.0,439.000,442.499,6.3309,6.3314,34.1661,34.1648,34.1639,34.1640,0.69383,0.81,0.83,0.0243,,,1.5746,35.73,37.666,26.8564,26.8547,0.3830,90.8705,5.2407e+00,9.9990e+03,,,,,,,
CalCOFI,0701JD,015,137,15-Jan-2007 6:42:42 PM,15-Jan-2007 10:42:42 AM,30.51366,-122.25384,093.3 100.0,093.3,100.0,438.000,441.490,6.3346,6.3354,34.1659,34.1646,34.1639,34.1640,0.69776,0.82,0.84,0.0248,,,1.5659,35.47,37.406,26.8558,26.8541,0.3832,90.8640,4.9159e+00,9.9990e+03,,,,,,,
CalCOFI,0701JD,015,137,15-Jan-2007 6:42:42 PM,15-Jan-2007 10:42:42 AM,30.51366,-122.25384,093.3 100.0,093.3,100.0,437.000,440.481,6.3395,6.3398,34.1655,34.1642,34.1638,34.1639,0.70112,0.82,0.84,0.0244,,,1.5579,35.24,37.167,26.8548,26.8534,0.3830,90.8700,5.4845e+00,9.9990e+03,,,,,,,
CalCOFI,0701JD,015,137,15-Jan-2007 6:42:43 PM,15-Jan-2007 10:42:43 AM,30.51357,-122.25384,093.3 100.0,093.3,100.0,436.000,439.472,6.3431,6.3439,34.1652,34.1639,34.1633,34.1634,0.70400,0.82,0.85,0.0245,,,1.5694,35.58,37.510,26.8541,26.8525,0.3835,90.8576,5.0722e+00,9.9990e+03,,,,,,,
CalCOFI,0701JD,015,137,15-Jan-2007 6:42:44 PM,15-Jan-2007 10:42:44 AM,30.51350,-122.25384,093.3 100.0,093.3,100.0,435.000,438.463,6.3464,6.3471,34.1652,34.1639,34.1634,34.1635,0.70580,0.83,0.85,0.0245,,,1.5729,35.68,37.615,26.8537,26.8522,0.3834,90.8607,5.2221e+00,9.9990e+03,,,,,,,
CalCOFI,0701JD,015,137,15-Jan-2007 6:42:45 PM,15-Jan-2007 10:42:45 AM,30.51350,-122.25384,093.3 100.0,093.3,100.0,434.000,437.454,6.3447,6.3464,34.1653,34.1640,34.1634,34.1635,0.70932,0.83,0.85,0.0245,,,1.5727,35.67,37.609,26.8539,26.8523,0.3832,90.8662,4.9424e+00,9.9990e+03,,,,,,,
CalCOFI,0701JD,015,137,15-Jan-2007 6:42:51 PM,15-Jan-2007 10:42:51 AM,30.51350,-122.25384,093.3 100.0,093.3,100.0,433.000,436.445,6.3382,6.3396,34.1656,34.1643,34.1634,34.1635,0.71851,0.84,0.86,0.0246,,,1.5612,35.34,37.265,26.8551,26.8531,0.3833,90.8639,4.9205e+00,9.9990e+03,,,,,,,
CalCOFI,0701JD,015,137,15-Jan-2007 6:42:52 PM,15-Jan-2007 10:42:52 AM,30.51350,-122.25384,093.3 100.0,093.3,100.0,432.000,435.436,6.3561,6.3561,34.1645,34.1632,34.1624,34.1625,0.71937,0.84,0.86,0.0245,,,1.5572,35.22,37.146,26.8519,26.8501,0.3848,90.8286,5.1124e+00,9.9990e+03,,,,,,,
CalCOFI,0701JD,015,137,15-Jan-2007 6:43:00 PM,15-Jan-2007 10:43:00 AM,30.51350,-122.25373,093.3 100.0,093.3,100.0,431.000,434.427,6.3610,6.3614,34.1641,34.1628,34.1623,34.1624,0.72110,0.84,0.87,0.0245,,,1.5619,35.36,37.286,26.8508,26.8494,0.3833,90.8636,4.7414e+00,9.9990e+03,,,,,,,